Year,Month,Day,Hour,Minute,Value (Times are PST for temperature in C)
2016,09,22,00,00,9.20
2016,09,22,00,01,9.20
2016,09,22,00,02,9.10
2016,09,22,00,03,9.10
2016,09,22,00,04,9.10
2016,09,22,00,05,9.10
2016,09,22,00,06,9.10
2016,09,22,00,07,9.00
2016,09,22,00,08,9.00
2016,09,22,00,09,9.00
2016,09,22,00,10,9.00
2016,09,22,00,11,9.00
2016,09,22,00,12,8.90
2016,09,22,00,13,8.90
2016,09,22,00,14,8.90
2016,09,22,00,15,8.90
2016,09,22,00,16,8.90
2016,09,22,00,17,8.80
2016,09,22,00,18,8.80
2016,09,22,00,19,8.80
2016,09,22,00,20,8.80
2016,09,22,00,21,8.80
2016,09,22,00,22,8.70
2016,09,22,00,23,8.70
2016,09,22,00,24,8.70
2016,09,22,00,25,8.70
2016,09,22,00,26,8.60
2016,09,22,00,27,8.60
2016,09,22,00,28,8.60
2016,09,22,00,29,8.60
2016,09,22,00,30,8.50
2016,09,22,00,31,8.50
2016,09,22,00,32,8.50
2016,09,22,00,33,8.40
2016,09,22,00,34,8.40
2016,09,22,00,35,8.40
2016,09,22,00,36,8.40
2016,09,22,00,37,8.40
2016,09,22,00,38,8.40
2016,09,22,00,39,8.40
2016,09,22,00,40,8.40
2016,09,22,00,41,8.40
2016,09,22,00,42,8.40
2016,09,22,00,43,8.40
2016,09,22,00,44,8.40
2016,09,22,00,45,8.50
2016,09,22,00,46,8.50
2016,09,22,00,47,8.50
2016,09,22,00,48,8.50
2016,09,22,00,49,8.40
2016,09,22,00,50,8.40
2016,09,22,00,51,8.40
2016,09,22,00,52,8.40
2016,09,22,00,53,8.40
2016,09,22,00,54,8.40
2016,09,22,00,55,8.40
2016,09,22,00,56,8.40
2016,09,22,00,57,8.40
2016,09,22,00,58,8.40
2016,09,22,00,59,8.40
2016,09,22,01,00,8.30
2016,09,22,01,01,8.30
2016,09,22,01,02,8.30
2016,09,22,01,03,8.30
2016,09,22,01,04,8.30
2016,09,22,01,05,8.30
2016,09,22,01,06,8.20
2016,09,22,01,07,8.20
2016,09,22,01,08,8.20
2016,09,22,01,09,8.20
2016,09,22,01,10,8.20
2016,09,22,01,11,8.10
2016,09,22,01,12,8.10
2016,09,22,01,13,8.10
2016,09,22,01,14,8.10
2016,09,22,01,15,8.10
2016,09,22,01,16,8.00
2016,09,22,01,17,8.00
2016,09,22,01,18,8.00
2016,09,22,01,19,8.00
2016,09,22,01,20,7.90
2016,09,22,01,21,7.90
2016,09,22,01,22,7.90
2016,09,22,01,23,7.90
2016,09,22,01,24,7.80
2016,09,22,01,25,7.80
2016,09,22,01,26,7.80
2016,09,22,01,27,7.80
2016,09,22,01,28,7.80
2016,09,22,01,29,7.80
2016,09,22,01,30,7.80
2016,09,22,01,31,7.80
2016,09,22,01,32,7.80
2016,09,22,01,33,7.90
2016,09,22,01,34,7.90
2016,09,22,01,35,7.90
2016,09,22,01,36,7.90
2016,09,22,01,37,7.90
2016,09,22,01,38,7.90
2016,09,22,01,39,7.90
2016,09,22,01,40,7.90
2016,09,22,01,41,7.90
2016,09,22,01,42,7.90
2016,09,22,01,43,7.90
2016,09,22,01,44,7.90
2016,09,22,01,45,7.90
2016,09,22,01,46,7.90
2016,09,22,01,47,7.80
2016,09,22,01,48,7.80
2016,09,22,01,49,7.80
2016,09,22,01,50,7.80
2016,09,22,01,51,7.80
2016,09,22,01,52,7.80
2016,09,22,01,53,7.80
2016,09,22,01,54,7.80
2016,09,22,01,55,7.80
2016,09,22,01,56,7.70
2016,09,22,01,57,7.70
2016,09,22,01,58,7.70
2016,09,22,01,59,7.70
2016,09,22,02,00,7.70
2016,09,22,02,01,7.70
2016,09,22,02,02,7.60
2016,09,22,02,03,7.60
2016,09,22,02,04,7.60
2016,09,22,02,05,7.60
2016,09,22,02,06,7.60
2016,09,22,02,07,7.50
2016,09,22,02,08,7.50
2016,09,22,02,09,7.50
2016,09,22,02,10,7.50
2016,09,22,02,11,7.50
2016,09,22,02,12,7.50
2016,09,22,02,13,7.50
2016,09,22,02,14,7.50
2016,09,22,02,15,7.50
2016,09,22,02,16,7.50
2016,09,22,02,17,7.50
2016,09,22,02,18,7.50
2016,09,22,02,19,7.40
2016,09,22,02,20,7.40
2016,09,22,02,21,7.40
2016,09,22,02,22,7.40
2016,09,22,02,23,7.40
2016,09,22,02,24,7.30
2016,09,22,02,25,7.30
2016,09,22,02,26,7.30
2016,09,22,02,27,7.30
2016,09,22,02,28,7.30
2016,09,22,02,29,7.20
2016,09,22,02,30,7.20
2016,09,22,02,31,7.20
2016,09,22,02,32,7.20
2016,09,22,02,33,7.20
2016,09,22,02,34,7.20
2016,09,22,02,35,7.20
2016,09,22,02,36,7.20
2016,09,22,02,37,7.20
2016,09,22,02,38,7.10
2016,09,22,02,39,7.10
2016,09,22,02,40,7.10
2016,09,22,02,41,7.10
2016,09,22,02,42,7.10
2016,09,22,02,43,7.10
2016,09,22,02,44,7.20
2016,09,22,02,45,7.20
2016,09,22,02,46,7.20
2016,09,22,02,47,7.20
2016,09,22,02,48,7.10
2016,09,22,02,49,7.10
2016,09,22,02,50,7.10
2016,09,22,02,51,7.10
2016,09,22,02,52,7.10
2016,09,22,02,53,7.10
2016,09,22,02,54,7.10
2016,09,22,02,55,7.10
2016,09,22,02,56,7.10
2016,09,22,02,57,7.00
2016,09,22,02,58,7.00
2016,09,22,02,59,6.90
2016,09,22,03,00,6.90
2016,09,22,03,01,6.90
2016,09,22,03,02,6.90
2016,09,22,03,03,6.90
2016,09,22,03,04,6.90
2016,09,22,03,05,6.80
2016,09,22,03,06,6.80
2016,09,22,03,07,6.80
2016,09,22,03,08,6.80
2016,09,22,03,09,6.80
2016,09,22,03,10,6.80
2016,09,22,03,11,6.80
2016,09,22,03,12,6.70
2016,09,22,03,13,6.70
2016,09,22,03,14,6.70
2016,09,22,03,15,6.70
2016,09,22,03,16,6.70
2016,09,22,03,17,6.70
2016,09,22,03,18,6.70
2016,09,22,03,19,6.70
2016,09,22,03,20,6.70
2016,09,22,03,21,6.70
2016,09,22,03,22,6.70
2016,09,22,03,23,6.70
2016,09,22,03,24,6.70
2016,09,22,03,25,6.70
2016,09,22,03,26,6.70
2016,09,22,03,27,6.70
2016,09,22,03,28,6.70
2016,09,22,03,29,6.70
2016,09,22,03,30,6.70
2016,09,22,03,31,6.70
2016,09,22,03,32,6.60
2016,09,22,03,33,6.60
2016,09,22,03,34,6.60
2016,09,22,03,35,6.60
2016,09,22,03,36,6.60
2016,09,22,03,37,6.60
2016,09,22,03,38,6.70
2016,09,22,03,39,6.70
2016,09,22,03,40,6.70
2016,09,22,03,41,6.70
2016,09,22,03,42,6.60
2016,09,22,03,43,6.60
2016,09,22,03,44,6.60
2016,09,22,03,45,6.60
2016,09,22,03,46,6.60
2016,09,22,03,47,6.60
2016,09,22,03,48,6.50
2016,09,22,03,49,6.50
2016,09,22,03,50,6.50
2016,09,22,03,51,6.50
2016,09,22,03,52,6.40
2016,09,22,03,53,6.40
2016,09,22,03,54,6.40
2016,09,22,03,55,6.40
2016,09,22,03,56,6.40
2016,09,22,03,57,6.30
2016,09,22,03,58,6.30
2016,09,22,03,59,6.30
2016,09,22,04,00,6.30
2016,09,22,04,01,6.30
2016,09,22,04,02,6.20
2016,09,22,04,03,6.20
2016,09,22,04,04,6.20
2016,09,22,04,05,6.20
2016,09,22,04,06,6.10
2016,09,22,04,07,6.10
2016,09,22,04,08,6.10
2016,09,22,04,09,6.10
2016,09,22,04,10,6.10
2016,09,22,04,11,6.10
2016,09,22,04,12,6.00
2016,09,22,04,13,6.00
2016,09,22,04,14,6.00
2016,09,22,04,15,6.00
2016,09,22,04,16,6.00
2016,09,22,04,17,6.00
2016,09,22,04,18,6.00
2016,09,22,04,19,6.00
2016,09,22,04,20,6.00
2016,09,22,04,21,6.00
2016,09,22,04,22,6.00
2016,09,22,04,23,6.00
2016,09,22,04,24,6.10
2016,09,22,04,25,6.20
2016,09,22,04,26,6.10
2016,09,22,04,27,6.10
2016,09,22,04,28,6.10
2016,09,22,04,29,6.10
2016,09,22,04,30,6.10
2016,09,22,04,31,6.10
2016,09,22,04,32,6.10
2016,09,22,04,33,6.10
2016,09,22,04,34,6.10
2016,09,22,04,35,6.10
2016,09,22,04,36,6.10
2016,09,22,04,37,6.10
2016,09,22,04,38,6.10
2016,09,22,04,39,6.10
2016,09,22,04,40,6.10
2016,09,22,04,41,6.00
2016,09,22,04,42,6.00
2016,09,22,04,43,6.00
2016,09,22,04,44,6.00
2016,09,22,04,45,5.90
2016,09,22,04,46,5.90
2016,09,22,04,47,5.90
2016,09,22,04,48,5.90
2016,09,22,04,49,5.90
2016,09,22,04,50,5.90
2016,09,22,04,51,5.90
2016,09,22,04,52,5.90
2016,09,22,04,53,5.90
2016,09,22,04,54,5.90
2016,09,22,04,55,5.80
2016,09,22,04,56,5.90
2016,09,22,04,57,5.80
2016,09,22,04,58,5.80
2016,09,22,04,59,5.80
2016,09,22,05,00,5.80
2016,09,22,05,01,5.80
2016,09,22,05,02,5.80
2016,09,22,05,03,5.80
2016,09,22,05,04,5.80
2016,09,22,05,05,5.80
2016,09,22,05,06,5.80
2016,09,22,05,07,5.80
2016,09,22,05,08,5.80
2016,09,22,05,09,5.80
2016,09,22,05,10,5.80
2016,09,22,05,11,5.80
2016,09,22,05,12,5.80
2016,09,22,05,13,5.80
2016,09,22,05,14,5.80
2016,09,22,05,15,5.80
2016,09,22,05,16,5.80
2016,09,22,05,17,5.80
2016,09,22,05,18,5.90
2016,09,22,05,19,5.90
2016,09,22,05,20,5.90
2016,09,22,05,21,5.90
2016,09,22,05,22,5.90
2016,09,22,05,23,5.90
2016,09,22,05,24,5.90
2016,09,22,05,25,5.90
2016,09,22,05,26,5.90
2016,09,22,05,27,5.90
2016,09,22,05,28,5.90
2016,09,22,05,29,5.90
2016,09,22,05,30,5.90
2016,09,22,05,31,5.90
2016,09,22,05,32,5.90
2016,09,22,05,33,5.90
2016,09,22,05,34,5.90
2016,09,22,05,35,5.80
2016,09,22,05,36,5.80
2016,09,22,05,37,5.80
2016,09,22,05,38,5.80
2016,09,22,05,39,5.80
2016,09,22,05,40,5.80
2016,09,22,05,41,5.80
2016,09,22,05,42,5.80
2016,09,22,05,43,5.80
2016,09,22,05,44,5.80
2016,09,22,05,45,5.80
2016,09,22,05,46,5.80
2016,09,22,05,47,5.70
2016,09,22,05,48,5.70
2016,09,22,05,49,5.70
2016,09,22,05,50,5.70
2016,09,22,05,51,5.70
2016,09,22,05,52,5.60
2016,09,22,05,53,5.60
2016,09,22,05,54,5.60
2016,09,22,05,55,5.60
2016,09,22,05,56,5.60
2016,09,22,05,57,5.60
2016,09,22,05,58,5.60
2016,09,22,05,59,5.60
2016,09,22,06,00,5.50
2016,09,22,06,01,5.50
2016,09,22,06,02,5.50
2016,09,22,06,03,5.50
2016,09,22,06,04,5.50
2016,09,22,06,05,5.40
2016,09,22,06,06,5.40
2016,09,22,06,07,5.40
2016,09,22,06,08,5.40
2016,09,22,06,09,5.40
2016,09,22,06,10,5.30
2016,09,22,06,11,5.30
2016,09,22,06,12,5.30
2016,09,22,06,13,5.30
2016,09,22,06,14,5.30
2016,09,22,06,15,5.30
2016,09,22,06,16,5.30
2016,09,22,06,17,5.20
2016,09,22,06,18,5.20
2016,09,22,06,19,5.20
2016,09,22,06,20,5.20
2016,09,22,06,21,5.20
2016,09,22,06,22,5.20
2016,09,22,06,23,5.20
2016,09,22,06,24,5.20
2016,09,22,06,25,5.20
2016,09,22,06,26,5.20
2016,09,22,06,27,5.20
2016,09,22,06,28,5.20
2016,09,22,06,29,5.20
2016,09,22,06,30,5.20
2016,09,22,06,31,5.10
2016,09,22,06,32,5.10
2016,09,22,06,33,5.10
2016,09,22,06,34,5.10
2016,09,22,06,35,5.10
2016,09,22,06,36,5.10
2016,09,22,06,37,5.10
2016,09,22,06,38,5.10
2016,09,22,06,39,5.10
2016,09,22,06,40,5.10
2016,09,22,06,41,5.10
2016,09,22,06,42,5.10
2016,09,22,06,43,5.10
2016,09,22,06,44,5.10
2016,09,22,06,45,5.10
2016,09,22,06,46,5.10
2016,09,22,06,47,5.10
2016,09,22,06,48,5.10
2016,09,22,06,49,5.10
2016,09,22,06,50,5.10
2016,09,22,06,51,5.00
2016,09,22,06,52,5.00
2016,09,22,06,53,5.00
2016,09,22,06,54,5.00
2016,09,22,06,55,5.00
2016,09,22,06,56,5.00
2016,09,22,06,57,5.00
2016,09,22,06,58,5.00
2016,09,22,06,59,5.00
2016,09,22,07,00,5.00
2016,09,22,07,01,5.00
2016,09,22,07,02,5.00
2016,09,22,07,03,5.10
2016,09,22,07,04,5.10
2016,09,22,07,05,5.10
2016,09,22,07,06,5.10
2016,09,22,07,07,5.10
2016,09,22,07,08,5.00
2016,09,22,07,09,5.00
2016,09,22,07,10,5.00
2016,09,22,07,11,4.90
2016,09,22,07,12,4.90
2016,09,22,07,13,5.00
2016,09,22,07,14,4.90
2016,09,22,07,15,4.90
2016,09,22,07,16,4.90
2016,09,22,07,17,4.90
2016,09,22,07,18,4.90
2016,09,22,07,19,4.90
2016,09,22,07,20,4.90
2016,09,22,07,21,4.90
2016,09,22,07,22,4.80
2016,09,22,07,23,4.80
2016,09,22,07,24,4.80
2016,09,22,07,25,4.80
2016,09,22,07,26,4.80
2016,09,22,07,27,4.80
2016,09,22,07,28,4.80
2016,09,22,07,29,4.90
2016,09,22,07,30,4.90
2016,09,22,07,31,4.90
2016,09,22,07,32,4.90
2016,09,22,07,33,4.90
2016,09,22,07,34,5.00
2016,09,22,07,35,5.00
2016,09,22,07,36,5.00
2016,09,22,07,37,5.00
2016,09,22,07,38,5.00
2016,09,22,07,39,5.10
2016,09,22,07,40,5.10
2016,09,22,07,41,5.10
2016,09,22,07,42,5.00
2016,09,22,07,43,5.00
2016,09,22,07,44,5.00
2016,09,22,07,45,5.00
2016,09,22,07,46,5.00
2016,09,22,07,47,5.00
2016,09,22,07,48,5.00
2016,09,22,07,49,5.00
2016,09,22,07,50,5.00
2016,09,22,07,51,5.00
2016,09,22,07,52,5.00
2016,09,22,07,53,5.10
2016,09,22,07,54,5.10
2016,09,22,07,55,5.10
2016,09,22,07,56,5.10
2016,09,22,07,57,5.10
2016,09,22,07,58,5.10
2016,09,22,07,59,5.10
2016,09,22,08,00,5.10
2016,09,22,08,01,5.10
2016,09,22,08,02,5.20
2016,09,22,08,03,5.20
2016,09,22,08,04,5.20
2016,09,22,08,05,5.20
2016,09,22,08,06,5.20
2016,09,22,08,07,5.30
2016,09,22,08,08,5.30
2016,09,22,08,09,5.30
2016,09,22,08,10,5.30
2016,09,22,08,11,5.30
2016,09,22,08,12,5.40
2016,09,22,08,13,5.40
2016,09,22,08,14,5.40
2016,09,22,08,15,5.40
2016,09,22,08,16,5.40
2016,09,22,08,17,5.50
2016,09,22,08,18,5.50
2016,09,22,08,19,5.60
2016,09,22,08,20,5.60
2016,09,22,08,21,5.70
2016,09,22,08,22,5.70
2016,09,22,08,23,5.70
2016,09,22,08,24,5.80
2016,09,22,08,25,5.80
2016,09,22,08,26,5.90
2016,09,22,08,27,5.90
2016,09,22,08,28,5.90
2016,09,22,08,29,6.00
2016,09,22,08,30,6.10
2016,09,22,08,31,6.10
2016,09,22,08,32,6.20
2016,09,22,08,33,6.30
2016,09,22,08,34,6.40
2016,09,22,08,35,6.50
2016,09,22,08,36,6.60
2016,09,22,08,37,6.60
2016,09,22,08,38,6.70
2016,09,22,08,39,6.70
2016,09,22,08,40,6.70
2016,09,22,08,41,6.70
2016,09,22,08,42,6.80
2016,09,22,08,43,6.80
2016,09,22,08,44,6.80
2016,09,22,08,45,6.80
2016,09,22,08,46,6.90
2016,09,22,08,47,6.90
2016,09,22,08,48,7.00
2016,09,22,08,49,7.10
2016,09,22,08,50,7.10
2016,09,22,08,51,7.20
2016,09,22,08,52,7.30
2016,09,22,08,53,7.30
2016,09,22,08,54,7.40
2016,09,22,08,55,7.40
2016,09,22,08,56,7.50
2016,09,22,08,57,7.60
2016,09,22,08,58,7.70
2016,09,22,08,59,7.80
2016,09,22,09,00,7.90
2016,09,22,09,01,8.10
2016,09,22,09,02,8.20
2016,09,22,09,03,8.30
2016,09,22,09,04,8.50
2016,09,22,09,05,8.60
2016,09,22,09,06,8.70
2016,09,22,09,07,8.80
2016,09,22,09,08,8.90
2016,09,22,09,09,9.10
2016,09,22,09,10,9.20
2016,09,22,09,11,9.30
2016,09,22,09,12,9.50
2016,09,22,09,13,9.60
2016,09,22,09,14,9.60
2016,09,22,09,15,9.70
2016,09,22,09,16,9.70
2016,09,22,09,17,9.80
2016,09,22,09,18,9.90
2016,09,22,09,19,10.00
2016,09,22,09,20,10.10
2016,09,22,09,21,10.10
2016,09,22,09,22,10.20
2016,09,22,09,23,10.20
2016,09,22,09,24,10.20
2016,09,22,09,25,10.20
2016,09,22,09,26,10.20
2016,09,22,09,27,10.20
2016,09,22,09,28,10.20
2016,09,22,09,29,10.20
2016,09,22,09,30,10.20
2016,09,22,09,31,10.20
2016,09,22,09,32,10.20
2016,09,22,09,33,10.20
2016,09,22,09,34,10.30
2016,09,22,09,35,10.30
2016,09,22,09,36,10.30
2016,09,22,09,37,10.40
2016,09,22,09,38,10.50
2016,09,22,09,39,10.60
2016,09,22,09,40,10.70
2016,09,22,09,41,10.80
2016,09,22,09,42,10.80
2016,09,22,09,43,10.80
2016,09,22,09,44,10.80
2016,09,22,09,45,10.80
2016,09,22,09,46,10.80
2016,09,22,09,47,10.80
2016,09,22,09,48,10.90
2016,09,22,09,49,10.90
2016,09,22,09,50,11.00
2016,09,22,09,51,11.10
2016,09,22,09,52,11.20
2016,09,22,09,53,11.20
2016,09,22,09,54,11.20
2016,09,22,09,55,11.20
2016,09,22,09,56,11.30
2016,09,22,09,57,11.30
2016,09,22,09,58,11.40
2016,09,22,09,59,11.50
2016,09,22,10,00,11.60
2016,09,22,10,01,11.70
2016,09,22,10,02,11.80
2016,09,22,10,03,11.90
2016,09,22,10,04,12.00
2016,09,22,10,05,12.10
2016,09,22,10,06,12.10
2016,09,22,10,07,12.10
2016,09,22,10,08,12.10
2016,09,22,10,09,12.10
2016,09,22,10,10,12.10
2016,09,22,10,11,12.10
2016,09,22,10,12,12.10
2016,09,22,10,13,12.20
2016,09,22,10,14,12.20
2016,09,22,10,15,12.20
2016,09,22,10,16,12.20
2016,09,22,10,17,12.20
2016,09,22,10,18,12.20
2016,09,22,10,19,12.20
2016,09,22,10,20,12.20
2016,09,22,10,21,12.20
2016,09,22,10,22,12.20
2016,09,22,10,23,12.20
2016,09,22,10,24,12.20
2016,09,22,10,25,12.30
2016,09,22,10,26,12.30
2016,09,22,10,27,12.30
2016,09,22,10,28,12.40
2016,09,22,10,29,12.50
2016,09,22,10,30,12.50
2016,09,22,10,31,12.50
2016,09,22,10,32,12.60
2016,09,22,10,33,12.60
2016,09,22,10,34,12.60
2016,09,22,10,35,12.70
2016,09,22,10,36,12.80
2016,09,22,10,37,12.90
2016,09,22,10,38,13.00
2016,09,22,10,39,13.00
2016,09,22,10,40,13.00
2016,09,22,10,41,13.00
2016,09,22,10,42,13.00
2016,09,22,10,43,13.00
2016,09,22,10,44,13.00
2016,09,22,10,45,13.00
2016,09,22,10,46,13.10
2016,09,22,10,47,13.10
2016,09,22,10,48,13.20
2016,09,22,10,49,13.20
2016,09,22,10,50,13.30
2016,09,22,10,51,13.40
2016,09,22,10,52,13.50
2016,09,22,10,53,13.50
2016,09,22,10,54,13.60
2016,09,22,10,55,13.60
2016,09,22,10,56,13.70
2016,09,22,10,57,13.80
2016,09,22,10,58,13.90
2016,09,22,10,59,14.00
2016,09,22,11,00,14.00
2016,09,22,11,01,14.10
2016,09,22,11,02,14.10
2016,09,22,11,03,14.10
2016,09,22,11,04,14.20
2016,09,22,11,05,14.20
2016,09,22,11,06,14.30
2016,09,22,11,07,14.30
2016,09,22,11,08,14.40
2016,09,22,11,09,14.40
2016,09,22,11,10,14.50
2016,09,22,11,11,14.60
2016,09,22,11,12,14.70
2016,09,22,11,13,14.70
2016,09,22,11,14,14.80
2016,09,22,11,15,14.80
2016,09,22,11,16,14.80
2016,09,22,11,17,14.90
2016,09,22,11,18,14.90
2016,09,22,11,19,14.90
2016,09,22,11,20,15.00
2016,09,22,11,21,15.00
2016,09,22,11,22,15.10
2016,09,22,11,23,15.20
2016,09,22,11,24,15.20
2016,09,22,11,25,15.20
2016,09,22,11,26,15.30
2016,09,22,11,27,15.30
2016,09,22,11,28,15.30
2016,09,22,11,29,15.30
2016,09,22,11,30,15.40
2016,09,22,11,31,15.50
2016,09,22,11,32,15.60
2016,09,22,11,33,15.70
2016,09,22,11,34,15.80
2016,09,22,11,35,15.90
2016,09,22,11,36,15.90
2016,09,22,11,37,16.00
2016,09,22,11,38,16.00
2016,09,22,11,39,16.00
2016,09,22,11,40,15.90
2016,09,22,11,41,15.90
2016,09,22,11,42,15.90
2016,09,22,11,43,15.80
2016,09,22,11,44,15.80
2016,09,22,11,45,15.80
2016,09,22,11,46,15.80
2016,09,22,11,47,15.80
2016,09,22,11,48,15.80
2016,09,22,11,49,15.80
2016,09,22,11,50,15.90
2016,09,22,11,51,16.00
2016,09,22,11,52,16.00
2016,09,22,11,53,16.10
2016,09,22,11,54,16.10
2016,09,22,11,55,16.10
2016,09,22,11,56,16.10
2016,09,22,11,57,16.10
2016,09,22,11,58,16.10
2016,09,22,11,59,16.10
2016,09,22,12,00,16.20
2016,09,22,12,01,16.30
2016,09,22,12,02,16.40
2016,09,22,12,03,16.50
2016,09,22,12,04,16.50
2016,09,22,12,05,16.60
2016,09,22,12,06,16.70
2016,09,22,12,07,16.70
2016,09,22,12,08,16.80
2016,09,22,12,09,16.80
2016,09,22,12,10,16.90
2016,09,22,12,11,17.00
2016,09,22,12,12,17.10
2016,09,22,12,13,17.30
2016,09,22,12,14,17.30
2016,09,22,12,15,17.40
2016,09,22,12,16,17.40
2016,09,22,12,17,17.40
2016,09,22,12,18,17.40
2016,09,22,12,19,17.50
2016,09,22,12,20,17.50
2016,09,22,12,21,17.60
2016,09,22,12,22,17.60
2016,09,22,12,23,17.70
2016,09,22,12,24,17.70
2016,09,22,12,25,17.80
2016,09,22,12,26,17.90
2016,09,22,12,27,18.00
2016,09,22,12,28,18.00
2016,09,22,12,29,18.10
2016,09,22,12,30,18.20
2016,09,22,12,31,18.20
2016,09,22,12,32,18.20
2016,09,22,12,33,18.20
2016,09,22,12,34,18.10
2016,09,22,12,35,18.10
2016,09,22,12,36,18.10
2016,09,22,12,37,18.10
2016,09,22,12,38,18.10
2016,09,22,12,39,18.10
2016,09,22,12,40,18.20
2016,09,22,12,41,18.20
2016,09,22,12,42,18.10
2016,09,22,12,43,18.10
2016,09,22,12,44,18.00
2016,09,22,12,45,18.00
2016,09,22,12,46,17.90
2016,09,22,12,47,17.90
2016,09,22,12,48,18.00
2016,09,22,12,49,18.00
2016,09,22,12,50,18.10
2016,09,22,12,51,18.10
2016,09,22,12,52,18.10
2016,09,22,12,53,18.00
2016,09,22,12,54,18.00
2016,09,22,12,55,18.00
2016,09,22,12,56,18.00
2016,09,22,12,57,18.00
2016,09,22,12,58,18.00
2016,09,22,12,59,18.10
2016,09,22,13,00,18.10
2016,09,22,13,01,18.10
2016,09,22,13,02,18.20
2016,09,22,13,03,18.30
2016,09,22,13,04,18.40
2016,09,22,13,05,18.50
2016,09,22,13,06,18.60
2016,09,22,13,07,18.60
2016,09,22,13,08,18.70
2016,09,22,13,09,18.80
2016,09,22,13,10,18.90
2016,09,22,13,11,18.90
2016,09,22,13,12,18.90
2016,09,22,13,13,19.00
2016,09,22,13,14,19.00
2016,09,22,13,15,19.10
2016,09,22,13,16,19.20
2016,09,22,13,17,19.30
2016,09,22,13,18,19.30
2016,09,22,13,19,19.40
2016,09,22,13,20,19.40
2016,09,22,13,21,19.40
2016,09,22,13,22,19.40
2016,09,22,13,23,19.40
2016,09,22,13,24,19.40
2016,09,22,13,25,19.40
2016,09,22,13,26,19.40
2016,09,22,13,27,19.40
2016,09,22,13,28,19.40
2016,09,22,13,29,19.40
2016,09,22,13,30,19.40
2016,09,22,13,31,19.40
2016,09,22,13,32,19.40
2016,09,22,13,33,19.50
2016,09,22,13,34,19.50
2016,09,22,13,35,19.50
2016,09,22,13,36,19.60
2016,09,22,13,37,19.60
2016,09,22,13,38,19.80
2016,09,22,13,39,19.90
2016,09,22,13,40,20.00
2016,09,22,13,41,20.10
2016,09,22,13,42,20.10
2016,09,22,13,43,20.20
2016,09,22,13,44,20.20
2016,09,22,13,45,20.20
2016,09,22,13,46,20.30
2016,09,22,13,47,20.30
2016,09,22,13,48,20.40
2016,09,22,13,49,20.40
2016,09,22,13,50,20.40
2016,09,22,13,51,20.40
2016,09,22,13,52,20.40
2016,09,22,13,53,20.40
2016,09,22,13,54,20.50
2016,09,22,13,55,20.50
2016,09,22,13,56,20.50
2016,09,22,13,57,20.60
2016,09,22,13,58,20.70
2016,09,22,13,59,20.80
2016,09,22,14,00,20.80
2016,09,22,14,01,20.90
2016,09,22,14,02,20.90
2016,09,22,14,03,20.80
2016,09,22,14,04,20.80
2016,09,22,14,05,20.80
2016,09,22,14,06,20.80
2016,09,22,14,07,20.80
2016,09,22,14,08,20.80
2016,09,22,14,09,20.80
2016,09,22,14,10,20.90
2016,09,22,14,11,20.90
2016,09,22,14,12,21.00
2016,09,22,14,13,21.00
2016,09,22,14,14,21.10
2016,09,22,14,15,21.10
2016,09,22,14,16,21.10
2016,09,22,14,17,21.10
2016,09,22,14,18,21.00
2016,09,22,14,19,21.00
2016,09,22,14,20,21.00
2016,09,22,14,21,21.00
2016,09,22,14,22,21.00
2016,09,22,14,23,21.10
2016,09,22,14,24,21.10
2016,09,22,14,25,21.00
2016,09,22,14,26,21.00
2016,09,22,14,27,21.00
2016,09,22,14,28,21.00
2016,09,22,14,29,21.10
2016,09,22,14,30,21.10
2016,09,22,14,31,21.10
2016,09,22,14,32,21.20
2016,09,22,14,33,21.20
2016,09,22,14,34,21.30
2016,09,22,14,35,21.40
2016,09,22,14,36,21.40
2016,09,22,14,37,21.50
2016,09,22,14,38,21.50
2016,09,22,14,39,21.60
2016,09,22,14,40,21.60
2016,09,22,14,41,21.60
2016,09,22,14,42,21.70
2016,09,22,14,43,21.70
2016,09,22,14,44,21.80
2016,09,22,14,45,21.90
2016,09,22,14,46,21.90
2016,09,22,14,47,21.90
2016,09,22,14,48,21.90
2016,09,22,14,49,21.90
2016,09,22,14,50,21.90
2016,09,22,14,51,22.00
2016,09,22,14,52,22.30
2016,09,22,14,53,22.20
2016,09,22,14,54,22.20
2016,09,22,14,55,22.20
2016,09,22,14,56,22.20
2016,09,22,14,57,22.20
2016,09,22,14,58,22.20
2016,09,22,14,59,22.20
2016,09,22,15,00,22.20
2016,09,22,15,01,22.30
2016,09,22,15,02,22.30
2016,09,22,15,03,22.30
2016,09,22,15,04,22.30
2016,09,22,15,05,22.30
2016,09,22,15,06,22.30
2016,09,22,15,07,22.40
2016,09,22,15,08,22.40
2016,09,22,15,09,22.40
2016,09,22,15,10,22.30
2016,09,22,15,11,22.30
2016,09,22,15,12,22.20
2016,09,22,15,13,22.00
2016,09,22,15,14,21.90
2016,09,22,15,15,21.90
2016,09,22,15,16,21.80
2016,09,22,15,17,21.70
2016,09,22,15,18,21.60
2016,09,22,15,19,21.60
2016,09,22,15,20,21.60
2016,09,22,15,21,21.50
2016,09,22,15,22,21.50
2016,09,22,15,23,21.40
2016,09,22,15,24,21.40
2016,09,22,15,25,21.40
2016,09,22,15,26,21.30
2016,09,22,15,27,21.30
2016,09,22,15,28,21.20
2016,09,22,15,29,21.20
2016,09,22,15,30,21.20
2016,09,22,15,31,21.20
2016,09,22,15,32,21.20
2016,09,22,15,33,21.20
2016,09,22,15,34,21.20
2016,09,22,15,35,21.20
2016,09,22,15,36,21.20
2016,09,22,15,37,21.20
2016,09,22,15,38,21.20
2016,09,22,15,39,21.20
2016,09,22,15,40,21.10
2016,09,22,15,41,21.00
2016,09,22,15,42,20.90
2016,09,22,15,43,20.80
2016,09,22,15,44,20.70
2016,09,22,15,45,20.60
2016,09,22,15,46,20.60
2016,09,22,15,47,20.60
2016,09,22,15,48,20.60
2016,09,22,15,49,20.60
2016,09,22,15,50,20.50
2016,09,22,15,51,20.50
2016,09,22,15,52,20.40
2016,09,22,15,53,20.30
2016,09,22,15,54,20.20
2016,09,22,15,55,20.20
2016,09,22,15,56,20.20
2016,09,22,15,57,20.30
2016,09,22,15,58,20.30
2016,09,22,15,59,20.30
2016,09,22,16,00,20.20
2016,09,22,16,01,20.20
2016,09,22,16,02,20.10
2016,09,22,16,03,20.00
2016,09,22,16,04,19.90
2016,09,22,16,05,19.80
2016,09,22,16,06,19.80
2016,09,22,16,07,19.70
2016,09,22,16,08,19.70
2016,09,22,16,09,19.70
2016,09,22,16,10,19.70
2016,09,22,16,11,19.60
2016,09,22,16,12,19.60
2016,09,22,16,13,19.60
2016,09,22,16,14,19.70
2016,09,22,16,15,19.70
2016,09,22,16,16,19.70
2016,09,22,16,17,19.60
2016,09,22,16,18,19.50
2016,09,22,16,19,19.50
2016,09,22,16,20,19.40
2016,09,22,16,21,19.30
2016,09,22,16,22,19.10
2016,09,22,16,23,19.00
2016,09,22,16,24,19.00
2016,09,22,16,25,19.00
2016,09,22,16,26,19.00
2016,09,22,16,27,19.00
2016,09,22,16,28,19.00
2016,09,22,16,29,18.90
2016,09,22,16,30,18.90
2016,09,22,16,31,18.80
2016,09,22,16,32,18.80
2016,09,22,16,33,18.70
2016,09,22,16,34,18.70
2016,09,22,16,35,18.70
2016,09,22,16,36,18.80
2016,09,22,16,37,18.80
2016,09,22,16,38,18.80
2016,09,22,16,39,18.80
2016,09,22,16,40,18.80
2016,09,22,16,41,18.70
2016,09,22,16,42,18.70
2016,09,22,16,43,18.70
2016,09,22,16,44,18.70
2016,09,22,16,45,18.70
2016,09,22,16,46,18.70
2016,09,22,16,47,18.70
2016,09,22,16,48,18.80
2016,09,22,16,49,18.80
2016,09,22,16,50,18.90
2016,09,22,16,51,18.90
2016,09,22,16,52,18.90
2016,09,22,16,53,19.00
2016,09,22,16,54,19.00
2016,09,22,16,55,19.00
2016,09,22,16,56,19.00
2016,09,22,16,57,19.00
2016,09,22,16,58,18.90
2016,09,22,16,59,18.90
2016,09,22,17,00,18.90
2016,09,22,17,01,18.80
2016,09,22,17,02,18.80
2016,09,22,17,03,18.80
2016,09,22,17,04,18.70
2016,09,22,17,05,18.70
2016,09,22,17,06,18.60
2016,09,22,17,07,18.50
2016,09,22,17,08,18.50
2016,09,22,17,09,18.40
2016,09,22,17,10,18.40
2016,09,22,17,11,18.30
2016,09,22,17,12,18.20
2016,09,22,17,13,18.10
2016,09,22,17,14,18.00
2016,09,22,17,15,17.90
2016,09,22,17,16,17.90
2016,09,22,17,17,17.80
2016,09,22,17,18,17.80
2016,09,22,17,19,17.80
2016,09,22,17,20,17.70
2016,09,22,17,21,17.70
2016,09,22,17,22,17.70
2016,09,22,17,23,17.60
2016,09,22,17,24,17.60
2016,09,22,17,25,17.60
2016,09,22,17,26,17.60
2016,09,22,17,27,17.60
2016,09,22,17,28,17.60
2016,09,22,17,29,17.60
2016,09,22,17,30,17.60
2016,09,22,17,31,17.60
2016,09,22,17,32,17.60
2016,09,22,17,33,17.60
2016,09,22,17,34,17.60
2016,09,22,17,35,17.60
2016,09,22,17,36,17.60
2016,09,22,17,37,17.60
2016,09,22,17,38,17.60
2016,09,22,17,39,17.50
2016,09,22,17,40,17.40
2016,09,22,17,41,17.30
2016,09,22,17,42,17.20
2016,09,22,17,43,17.10